Flag for U.S.A. Weather past 2 weeks in Youngstown, Ohio, U.S.A.

Now
70 °F

Overcast.


Feels Like: 65 °F
Forecast: 68 / 82 °F
Wind: 5 mph from Southwest

Location: Youngstown-Warren Regional Airport

Current Time: Sep 1, 2014 at 8:23:05 AM

Latest Report: Sep 1, 2014 at 7:51 AM


Visibility: 8 mi

Pressure: 30.00 "Hg

Humidity: 93%

Dew point: 68 °F

Location of YoungstownLocation

Historic Weather in Youngstown — Graph

°F

Youngstown temperature yesterday

Maximum temperature yesterday: 77 °F (at 1:51 PM)
Minimum temperature yesterday: 68 °F (at 4:51 AM)
Average temperature yesterday: 72 °F

Past Weeks' High & Low Weather Summary

 TemperatureHumidityPressure
High87 °F (Aug 30, 2:51 PM)97% (Aug 17, 6:51 AM)30.19 "Hg (Aug 17, 6:51 AM)
Low47 °F (Aug 29, 6:51 AM)37% (Aug 19, 1:51 PM)29.81 "Hg (Aug 19, 6:51 PM)
Average70 °F77%30.02 "Hg
* Reported Aug 17 6:51 AM — Sep 1 6:51 AM, Youngstown, Weather by CustomWeather, © 2014

Note: Actual official high and low records may vary slightly from our data, if they occured in-between our weather recording intervals... More about our weather records

Advertising

Youngstown weather history for previous 24 hours

 ConditionsComfort  
Time TempWeatherWind HumidityBarometerVisibility
6:51 AM
Sep 1
70 °FOvercast.3 mph93%30.00 "Hg8 mi
5:51 AM70 °FLow clouds.3 mph93%29.99 "Hg9 mi
4:51 AM71 °FMostly cloudy.3 mph93%29.99 "Hg9 mi
3:51 AM71 °FLow clouds.3 mph93%29.99 "Hg9 mi
2:51 AM71 °FFog.5 mph93%29.99 "Hg6 mi
1:51 AM71 °FFog.6 mph93%29.99 "Hg4 mi
12:51 AM70 °FFog.7 mph93%29.99 "Hg4 mi
11:51 PM
Aug 31
70 °FFog.5 mph97%29.99 "Hg6 mi
10:51 PM70 °FPassing clouds.5 mph97%30.00 "Hg9 mi
9:51 PM70 °FPassing clouds.5 mph97%30.00 "Hg10 mi
8:51 PM70 °FFog.3 mph93%30.00 "Hg6 mi
7:51 PM71 °FBroken clouds.No wind93%29.99 "Hg10 mi
6:51 PM72 °FLight rain. Fog.6 mph91%29.99 "Hg3 mi
5:51 PM75 °FPartly sunny.6 mph76%29.98 "Hg10 mi
4:51 PM76 °FMostly cloudy.10 mph77%29.98 "Hg10 mi
3:51 PM77 °FMostly cloudy.7 mph74%29.98 "Hg10 mi
2:51 PM76 °FLight rain. Cloudy.13 mph77%30.00 "Hg10 mi
1:51 PM77 °FCloudy.12 mph77%30.00 "Hg10 mi
12:51 PM75 °FCloudy.10 mph82%30.01 "Hg7 mi
11:51 AM73 °FFog.12 mph88%30.02 "Hg2 mi
10:51 AM72 °FFog.8 mph91%30.02 "Hg2 mi
9:51 AM70 °FLight rain. Fog.9 mph93%30.03 "Hg2 mi
8:51 AM70 °FLight rain. Fog.7 mph93%30.02 "Hg2 mi
Weather by CustomWeather, © 2014

See weather overviewHow to use our weather pages